IV3CVE-H1 Weather Reports


time (UTC)temp
C
wind
direction
speed
KPH
gust
KPH
rain 1hr
cm
rain 24hr
cm
rain mn
cm
humidity
%
barometer
mb
20260503004517 11 29 3.2 8.0 0.00 0.00 0.00 82 1017.7
20260503003517 11 29 3.2 8.0 0.00 0.00 0.00 82 1017.8
20260503002516 11 23 4.8 8.0 0.00 0.00 0.00 82 1017.9
20260503001516 11 21 6.4 8.0 0.00 0.00 0.00 82 1018.0
20260503000516 11 22 4.8 8.0 0.00 0.00 0.00 83 1018.0
20260502235536 11 24 4.8 8.0 0.00 0.00 0.00 83 1018.1
20260502234516 11 11 4.8 8.0 0.00 0.00 0.00 82 1018.2
20260502233515 11 9 4.8 6.4 0.00 0.00 0.00 82 1018.3
20260502232515 12 9 3.2 4.8 0.00 0.00 0.00 83 1018.4
20260502231515 12 9 0.0 3.2 0.00 0.00 0.00 82 1018.4
20260502230517 12 9 1.6 8.0 0.00 0.00 0.00 82 1018.4
20260502225517 12 332 1.6 6.4 0.00 0.00 0.00 81 1018.4
20260502224536 13 58 3.2 6.4 0.00 0.00 0.00 80 1018.4
20260502223515 13 82 3.2 6.4 0.00 0.00 0.00 79 1018.4
20260502222515 13 86 1.6 9.7 0.00 0.00 0.00 79 1018.4
20260502221535 13 81 4.8 9.7 0.00 0.00 0.00 78 1018.4
20260502220517 13 81 4.8 8.0 0.00 0.00 0.00 77 1018.4
20260502215517 13 75 6.4 9.7 0.00 0.00 0.00 75 1018.5
20260502214516 13 74 4.8 9.7 0.00 0.00 0.00 74 1018.5
20260502213516 13 71 4.8 11.3 0.00 0.00 0.00 73 1018.5
20260502212516 14 75 3.2 9.7 0.00 0.00 0.00 72 1018.5
20260502211516 14 73 3.2 9.7 0.00 0.00 0.00 72 1018.4
20260502210516 13 63 3.2 8.0 0.00 0.00 0.00 72 1018.5
20260502205556 13 65 3.2 9.7 0.00 0.00 0.00 72 1018.5
20260502204515 13 65 3.2 9.7 0.00 0.00 0.00 72 1018.5
20260502203535 13 38 4.8 8.0 0.00 0.00 0.00 71 1018.5
20260502202517 13 13 4.8 6.4 0.00 0.00 0.00 71 1018.5
20260502201517 14 9 4.8 6.4 0.00 0.00 0.00 69 1018.5
20260502200517 15 9 4.8 6.4 0.00 0.00 0.00 68 1018.5
20260502195557 15 50 3.2 4.8 0.00 0.00 0.00 66 1018.5
20260502194516 15 138 0.0 1.6 0.00 0.00 0.00 64 1018.4
20260502193536 16 138 1.6 3.2 0.00 0.00 0.00 62 1018.2
20260502192516 16 138 1.6 6.4 0.00 0.00 0.00 60 1018.2
20260502191516 17 139 1.6 4.8 0.00 0.00 0.00 59 1018.1
20260502190516 17 133 1.6 6.4 0.00 0.00 0.00 57 1018.1
20260502185515 18 134 1.6 4.8 0.00 0.00 0.00 56 1018.0
20260502184517 18 142 1.6 6.4 0.00 0.00 0.00 54 1018.0
20260502183516 19 141 1.6 9.7 0.00 0.00 0.00 52 1017.9
20260502182556 19 139 3.2 6.4 0.00 0.00 0.00 50 1017.8
20260502181515 20 160 4.8 11.3 0.00 0.00 0.00 48 1017.7
20260502180536 20 162 1.6 11.3 0.00 0.00 0.00 48 1017.7
20260502163516 23 170 8.0 22.5 0.00 0.00 0.00 40 1017.8
20260502162536 24 185 6.4 20.9 0.00 0.00 0.00 39 1017.8
20260502161515 25 170 6.4 20.9 0.00 0.00 0.00 38 1017.8
20260502160515 25 184 12.9 22.5 0.00 0.00 0.00 38 1017.8
20260502151536 25 184 11.3 20.9 0.00 0.00 0.00 37 1018.4
20260502150516 25 183 12.9 17.7 0.00 0.00 0.00 37 1018.5
20260502130517 25 217 14.5 27.4 0.00 0.00 0.00 36 1019.9
20260502123516 26 193 9.7 24.1 0.00 0.00 0.00 36 1020.2
20260502122516 26 185 11.3 19.3 0.00 0.00 0.00 36 1020.4
20260502121516 25 223 12.9 19.3 0.00 0.00 0.00 37 1020.5
20260502120515 25 218 8.0 19.3 0.00 0.00 0.00 37 1020.6
20260502115516 25 201 14.5 20.9 0.00 0.00 0.00 38 1020.7
20260502114636 25 182 12.9 25.7 0.00 0.00 0.00 37 1020.9
20260502113517 25 196 6.4 25.7 0.00 0.00 0.00 38 1021.0
20260502112517 25 224 9.7 24.1 0.00 0.00 0.00 39 1021.1
20260502111517 25 224 16.1 27.4 0.00 0.00 0.00 38 1021.3
20260502110516 25 182 4.8 22.5 0.00 0.00 0.00 39 1021.5
20260502105516 24 200 11.3 19.3 0.00 0.00 0.00 40 1021.6
20260502104516 23 198 12.9 20.9 0.00 0.00 0.00 42 1021.7
20260502103517 23 218 9.7 20.9 0.00 0.00 0.00 40 1021.8
20260502102517 23 216 9.7 19.3 0.00 0.00 0.00 39 1021.9
20260502101517 23 182 6.4 19.3 0.00 0.00 0.00 41 1022.0
20260502100537 23 209 8.0 17.7 0.00 0.00 0.00 40 1022.1
20260502091515 22 181 6.4 11.3 0.00 0.00 0.00 41 1022.6
20260502090515 21 170 4.8 9.7 0.00 0.00 0.00 43 1022.7
20260502071515 17 37 1.6 8.0 0.00 0.00 0.00 57 1023.3
20260502070515 16 73 3.2 8.0 0.00 0.00 0.00 58 1023.4
20260502065517 16 40 3.2 9.7 0.00 0.00 0.00 59 1023.5
20260502064517 16 53 6.4 11.3 0.00 0.00 0.00 60 1023.5
20260502063516 15 59 1.6 8.0 0.00 0.00 0.00 61 1023.6
20260502062516 15 36 1.6 11.3 0.00 0.00 0.00 62 1023.6
20260502061515 15 38 4.8 9.7 0.00 0.00 0.00 62 1023.6
20260502060517 14 35 1.6 9.7 0.00 0.00 0.00 64 1023.7
20260502055517 13 45 3.2 8.0 0.00 0.00 0.00 67 1023.8
20260502054517 13 45 4.8 9.7 0.00 0.00 0.00 67 1023.8
20260502053517 12 38 3.2 6.4 0.00 0.00 0.00 69 1023.8
20260502052537 11 14 3.2 8.0 0.00 0.00 0.00 71 1023.8
20260502051516 11 16 3.2 8.0 0.00 0.00 0.00 73 1023.8
20260502050516 10 36 3.2 8.0 0.00 0.00 0.00 75 1023.8
20260502045516 9 19 4.8 8.0 0.00 0.00 0.00 76 1023.7
20260502044516 9 9 1.6 3.2 0.00 0.00 0.00 76 1023.7
20260502043516 8 9 0.0 4.8 0.00 0.00 0.00 76 1023.7
20260502042515 8 9 1.6 8.0 0.00 0.00 0.00 77 1023.6
20260502041515 8 21 4.8 9.7 0.00 0.00 0.00 78 1023.6
20260502040517 8 23 6.4 12.9 0.00 0.00 0.00 78 1023.5
20260502035517 8 27 9.7 12.9 0.00 0.00 0.00 79 1023.5
20260502034517 8 25 6.4 14.5 0.00 0.00 0.00 79 1023.5
20260502033537 8 19 6.4 9.7 0.00 0.00 0.00 78 1023.6
20260502032537 8 19 6.4 8.0 0.00 0.00 0.00 78 1023.6
20260502031516 8 13 3.2 8.0 0.00 0.00 0.00 77 1023.6
20260502030516 8 6 3.2 6.4 0.00 0.00 0.00 77 1023.6
20260502025515 8 11 3.2 8.0 0.00 0.00 0.00 77 1023.7
20260502024515 8 13 6.4 9.7 0.00 0.00 0.00 78 1023.7
20260502023515 8 18 4.8 9.7 0.00 0.00 0.00 78 1023.8
20260502022517 8 18 3.2 9.7 0.00 0.00 0.00 78 1023.8
20260502021516 8 20 3.2 14.5 0.00 0.00 0.00 78 1023.9
20260502020516 8 20 6.4 11.3 0.00 0.00 0.00 78 1023.8
20260502015536 8 18 3.2 9.7 0.00 0.00 0.00 79 1023.8
20260502014536 8 14 8.0 9.7 0.00 0.00 0.00 80 1023.9
20260502013535 8 21 6.4 8.0 0.00 0.00 0.00 80 1024.0
20260502012535 8 23 6.4 9.7 0.00 0.00 0.00 80 1024.0
20260502011515 8 20 3.2 8.0 0.00 0.00 0.00 80 1024.0
20260502010538 8 13 4.8 8.0 0.00 0.00 0.00 80 1024.0
20260502005517 8 29 3.2 6.4 0.00 0.00 0.00 79 1024.0